Location: Amsterdam
(30.7274°N, 84.4357°W)
Time: 00:34:29
(UTC+00:00)

Tiros 1 - Pass Details

Date: 24 February 2026
Orbit: 618 x 649 km, 48.4° (Epoch: 10 March)

Event Time Altitude Azimuth Distance (km) Brightness Sun altitude
Rises 18:46:02 0° 306° (NW) 2,888 10.4 47.9°
Reaches altitude 10° 18:48:23 10° 302° (WNW) 1,978 9.7 47.7°
Maximum altitude 18:52:49 54° 225° (SW) 746 9.5 47.4°
Drops below altitude 10° 18:57:14 10° 148° (SSE) 1,968 10.1 47.0°
Sets 18:59:34 0° 144° (SE) 2,871 10.7 46.8°
